Regional Weather Roundup
Issued by NWS State College, PA

Home | Current Version | Previous Version | Graphics & Text | Print | Product List | Glossary On
Versions: 1 2 3 4 5 6 7 8 9 10 11 12 13 14 15 16 17 18 19 20 21 22 23 24 25 26 27 28 29 30 31 32 33 34 35 36 37 38 39 40 41 42 43 44 45 46 47 48 49 50
000
ASUS41 KCTP 191010
RWRCTP

REGIONAL WEATHER ROUNDUP
NATIONAL WEATHER SERVICE STATE COLLEGE PA
500 AM EST MON FEB 19 2018

Note: "fair" indicates few or no clouds below 12,000 feet with no
significant weather and/or obstructions to visibility.

* = STATION THAT DOES NOT REPORT PRECIPITATION /E.G. RAIN...SNOW...ETC/
    THUNDER OR FOG.

PAZ002>004-007>009-013>016-020>023-029>032-191100-
WESTERN PENNSYLVANIA

CITY           SKY/WX    TMP DP  RH WIND       PRES   REMARKS
ERIE           FAIR      42  27  55 S20G28    30.10R
MEADVILLE      FAIR      36  26  67 VRB5      30.13R
FRANKLIN*      FAIR      34  26  72 SE9       30.16S
NEW CASTLE     CLOUDY    34  29  82 CALM      30.16S
BEAVER COUNTY  NOT AVBL
BUTLER*        CLOUDY    38  28  67 E6        30.18R
PITTSBURGH INT CLOUDY    35  29  78 SE5       30.16R
PITTSBURGH     CLOUDY    40  29  64 SE6       30.17R
INDIANA*       CLOUDY    41  32  70 S16G23    30.25R
LATROBE        CLOUDY    46  32  57 SE8       30.21R
WASHINGTON CO* MOCLDY    40  30  67 S6        30.20R
$$

PAZ004>006-010>012-017>019-024>028-033>037-041-042-045-046-049>053-191100-
CENTRAL PENNSYLVANIA

CITY           SKY/WX    TMP DP  RH WIND       PRES   REMARKS
BRADFORD       FAIR      33  26  75 S10G20    30.17F
DUBOIS         FAIR      33  26  75 SE9       30.20S
CLEARFIELD     FAIR      29  25  85 NE5       30.27S
JOHNSTOWN      CLOUDY    35  29  78 S14       30.23S
ALTOONA        FAIR      36  28  73 SW5       30.31S
STATE COLLEGE  FAIR      35  28  75 S6        30.32F
WILLIAMSPORT   FAIR      36  27  69 E12G21    30.39F
SELINSGROVE    FAIR      36  28  73 S7        30.43S
FT INDIANTOWN  CLOUDY    29  29 100 NE3       30.47R
CAPITAL CITY   CLOUDY    38  30  73 SE8       30.45F
HARRISBURG     CLOUDY    38  31  76 SE8       30.46S
YORK           CLOUDY    37  32  82 SE5       30.45S
$$

PAZ038>040-043-044-047-048-054-055-060>062-067>071-191100-
EASTERN PENNSYLVANIA

CITY           SKY/WX    TMP DP  RH WIND       PRES   REMARKS
SCRANTON       FAIR      34  24  67 SW3       30.41R
MOUNT POCONO   NOT AVBL
ALLENTOWN      FAIR      28  22  78 NW5       30.49R
QUAKERTOWN*    SUNNY     23  23 100 CALM      30.49R
READING        FAIR      30  27  88 CALM      30.47S
LANCASTER      CLOUDY    36  30  79 CALM      30.48R
COATESVILLE    FAIR      34 N/A N/A S5        30.49S
POTTSTOWN      FAIR      27  25  92 CALM      30.50S
BLUE BELL      FAIR      34  28  80 CALM      30.52R
DOYLESTOWN     FAIR      31  26  82 CALM      30.49R
WILLOW GROVE   NOT AVBL
NORTH PHILA    FAIR      36  28  73 S3        30.53R
PHILADELPHIA   MOCLDY    37  32  82 S6        30.53R
$$




USA.gov is the U.S. government's official web portal to all federal, state and local government web resources and services.